QPF
0.03 0.04 0.06 0.06 0.04 0.04 0.06 0.05 0.03 0.04 0.04 0.04 0.03 0.04 0.04 0.04 0.03 0.03 0.03 0.03 0.03 0.03 0.03 0.03 0.03 0.03 0.03 0.04 0.04 0.03 0.02 0.02 0.02 0.02 0.01 0.01 0.02 0.03 0.03 0.02 0.02 0.01 0.02
0.02 0.03 0.05 0.04 0.03 0.03 0.05 0.06 0.04 0.05 0.04 0.05 0.05 0.04 0.05 0.05 0.04 0.04 0.04 0.03 0.03 0.04 0.03 0.02 0.03 0.04 0.03 0.03 0.03 0.02 0.02 0.02 0.03 0.03 0.02 0.01 0.01 0.02 0.02 0.02 0.02 0.02 0.02
0.01 0.03 0.04 0.04 0.02 0.02 0.04 0.06 0.07 0.08 0.07 0.06 0.06 0.05 0.05 0.06 0.05 0.04 0.04 0.04 0.04 0.04 0.03 0.02 0.02 0.03 0.04 0.04 0.03 0.02 0.02 0.02 0.03 0.03 0.03 0.02 0.01 0.02 0.02 0.02 0.02 0.03 0.02
0.01 0.03 0.04 0.04 0.03 0.03 0.06 0.09 0.16 0.13 0.10 0.09 0.07 0.06 0.06 0.05 0.05 0.05 0.05 0.04 0.04 0.03 0.02 0.02 0.02 0.03 0.03 0.02 0.02 0.02 0.02 0.02 0.01 0.02 0.02 0.01 0.02 0.02 0.03 0.02 0.03 0.03 0.02
0.01 0.02 0.02 0.04 0.04 0.04 0.08 0.12 0.10 0.08 0.09 0.09 0.07 0.06 0.05 0.06 0.05 0.05 0.04 0.04 0.03 0.03 0.04 0.02 0.03 0.03 0.02 0.02 0.02 0.03 0.02 0.01 0.01 0.01 0.01 0.02 0.03 0.03 0.02 0.02 0.03 0.02 0.01
0.00 0.01 0.01 0.03 0.03 0.03 0.03 0.04 0.05 0.06 0.06 0.05 0.05 0.05 0.05 0.06 0.05 0.03 0.03 0.03 0.02 0.03 0.03 0.03 0.03 0.02 0.02 0.02 0.03 0.02 0.02 0.01 0.01 0.01 0.01 0.02 0.02 0.03 0.02 0.03 0.04 0.02 0.01
0.00 0.01 0.01 0.02 0.03 0.03 0.04 0.05 0.05 0.05 0.05 0.04 0.04 0.05 0.06 0.06 0.05 0.03 0.02 0.02 0.02 0.04 0.04 0.04 0.02 0.02 0.03 0.03 0.02 0.02 0.02 0.02 0.01 0.01 0.01 0.02 0.02 0.03 0.04 0.04 0.03 0.02 0.03
0.00 0.01 0.01 0.02 0.03 0.04 0.05 0.05 0.04 0.03 0.03 0.03 0.04 0.05 0.06 0.05 0.03 0.02 0.02 0.02 0.02 0.03 0.04 0.03 0.02 0.02 0.03 0.03 0.02 0.02 0.02 0.01 0.01 0.01 0.01 0.02 0.02 0.03 0.03 0.02 0.02 0.02 0.03
0.00 0.01 0.01 0.03 0.03 0.03 0.04 0.03 0.03 0.02 0.03 0.03 0.03 0.05 0.04 0.04 0.03 0.03 0.03 0.02 0.02 0.03 0.03 0.03 0.03 0.04 0.04 0.03 0.03 0.02 0.02 0.02 0.00 0.00 0.01 0.01 0.02 0.03 0.02 0.02 0.02 0.02 0.02
0.00 0.00 0.00 0.01 0.03 0.03 0.04 0.02 0.03 0.04 0.03 0.03 0.03 0.03 0.04 0.04 0.03 0.03 0.03 0.03 0.02 0.02 0.03 0.04 0.05 0.05 0.05 0.04 0.02 0.02 0.02 0.02 0.00 0.00 0.01 0.01 0.02 0.02 0.02 0.02 0.01 0.01 0.01
0.01 0.01 0.01 0.02 0.03 0.03 0.04 0.03 0.04 0.04 0.03 0.03 0.04 0.03 0.05 0.06 0.04 0.03 0.02 0.02 0.01 0.02 0.03 0.05 0.06 0.07 0.07 0.04 0.03 0.02 0.01 0.01 0.00 0.01 0.02 0.02 0.02 0.02 0.02 0.03 0.01 0.02 0.01
0.00 0.00 0.01 0.02 0.03 0.02 0.02 0.03 0.05 0.04 0.04 0.04 0.06 0.05 0.06 0.05 0.05 0.02 0.02 0.03 0.02 0.02 0.02 0.03 0.04 0.03 0.04 0.03 0.03 0.02 0.01 0.00 0.02 0.01 0.01 0.02 0.02 0.02 0.02 0.03 0.02 0.02 0.02
0.00 0.00 0.01 0.02 0.02 0.03 0.03 0.03 0.04 0.04 0.03 0.03 0.03 0.03 0.04 0.02 0.02 0.02 0.02 0.03 0.03 0.02 0.02 0.02 0.02 0.03 0.03 0.04 0.03 0.01 0.00 0.00 0.01 0.01 0.01 0.02 0.02 0.02 0.02 0.02 0.02 0.02 0.02
0.00 0.00 0.01 0.01 0.01 0.02 0.02 0.03 0.02 0.02 0.01 0.02 0.02 0.02 0.02 0.02 0.02 0.02 0.03 0.04 0.03 0.03 0.03 0.03 0.04 0.03 0.03 0.01 0.01 0.01 0.01 0.02 0.01 0.02 0.03 0.02 0.02 0.02 0.01 0.01 0.02 0.01 0.01
0.00 0.00 0.01 0.00 0.00 0.00 0.01 0.01 0.01 0.01 0.01 0.01 0.01 0.02 0.01 0.01 0.01 0.01 0.02 0.02 0.02 0.02 0.02 0.02 0.02 0.02 0.03 0.01 0.01 0.01 0.01 0.02 0.02 0.02 0.02 0.02 0.02 0.02 0.01 0.01 0.01 0.01 0.01
0.00 0.00 0.00 0.00 0.00 0.00 0.00 0.01 0.02 0.02 0.01 0.00 0.00 0.01 0.01 0.01 0.01 0.01 0.01 0.02 0.02 0.02 0.01 0.01 0.02 0.03 0.04 0.03 0.02 0.01 0.02 0.02 0.01 0.02 0.03 0.03 0.02 0.02 0.02 0.02 0.01 0.01 0.01
0.00 0.00 0.00 0.01 0.01 0.01 0.00 0.01 0.01 0.01 0.02 0.01 0.01 0.01 0.01 0.02 0.02 0.03 0.03 0.03 0.02 0.02 0.02 0.03 0.03 0.04 0.04 0.03 0.03 0.02 0.02 0.03 0.02 0.03 0.03 0.03 0.04 0.02 0.02 0.03 0.02 0.02 0.02
0.00 0.00 0.01 0.01 0.01 0.01 0.00 0.01 0.01 0.01 0.01 0.01 0.02 0.02 0.02 0.02 0.04 0.05 0.05 0.03 0.02 0.01 0.01 0.04 0.04 0.06 0.06 0.06 0.05 0.03 0.02 0.04 0.03 0.03 0.02 0.02 0.03 0.02 0.02 0.03 0.03 0.03 0.03
0.00 0.00 0.01 0.01 0.01 0.01 0.00 0.01 0.02 0.02 0.01 0.02 0.03 0.02 0.02 0.02 0.04 0.05 0.05 0.06 0.03 0.02 0.03 0.02 0.04 0.07 0.07 0.08 0.05 0.05 0.03 0.03 0.03 0.02 0.02 0.02 0.03 0.03 0.03 0.03 0.02 0.02 0.02
0.00 0.01 0.01 0.02 0.02 0.01 0.01 0.02 0.03 0.03 0.02 0.03 0.04 0.04 0.03 0.04 0.04 0.05 0.05 0.07 0.04 0.04 0.05 0.04 0.06 0.07 0.07 0.09 0.05 0.05 0.03 0.02 0.02 0.03 0.02 0.02 0.02 0.02 0.02 0.03 0.02 0.01 0.01
0.01 0.01 0.02 0.03 0.03 0.03 0.02 0.03 0.03 0.03 0.04 0.04 0.04 0.04 0.03 0.04 0.04 0.05 0.05 0.07 0.06 0.06 0.07 0.05 0.04 0.06 0.06 0.07 0.08 0.08 0.06 0.02 0.02 0.02 0.03 0.02 0.02 0.02 0.02 0.03 0.02 0.02 0.02
0.01 0.02 0.03 0.04 0.04 0.04 0.04 0.04 0.05 0.05 0.05 0.04 0.04 0.05 0.04 0.05 0.05 0.04 0.04 0.05 0.07 0.08 0.09 0.08 0.07 0.06 0.06 0.08 0.09 0.10 0.08 0.05 0.02 0.01 0.01 0.01 0.02 0.02 0.02 0.02 0.03 0.03 0.03
0.02 0.03 0.03 0.03 0.03 0.04 0.05 0.08 0.12 0.10 0.07 0.06 0.06 0.07 0.05 0.05 0.05 0.04 0.05 0.06 0.09 0.08 0.09 0.09 0.09 0.08 0.08 0.08 0.08 0.10 0.09 0.07 0.04 0.01 0.00 0.00 0.01 0.03 0.02 0.02 0.02 0.03 0.03
0.03 0.03 0.03 0.02 0.02 0.03 0.04 0.08 0.10 0.10 0.08 0.08 0.09 0.10 0.07 0.06 0.05 0.04 0.05 0.07 0.09 0.08 0.08 0.08 0.07 0.07 0.08 0.07 0.08 0.07 0.08 0.08 0.08 0.04 0.01 0.01 0.01 0.02 0.03 0.03 0.02 0.03 0.02
0.03 0.03 0.02 0.02 0.02 0.03 0.04 0.06 0.07 0.09 0.10 0.11 0.10 0.10 0.09 0.08 0.06 0.05 0.05 0.07 0.08 0.07 0.07 0.07 0.09 0.08 0.07 0.07 0.08 0.08 0.08 0.08 0.07 0.06 0.05 0.03 0.02 0.00 0.01 0.01 0.03 0.03 0.03
0.04 0.04 0.03 0.02 0.03 0.05 0.05 0.04 0.07 0.09 0.11 0.11 0.10 0.11 0.11 0.09 0.07 0.07 0.06 0.07 0.08 0.06 0.08 0.10 0.11 0.09 0.08 0.09 0.09 0.09 0.09 0.08 0.08 0.08 0.07 0.06 0.04 0.01 0.01 0.02 0.03 0.03 0.03
MSLP
1013.40 1013.52 1013.77 1014.12 1014.50 1014.84 1015.07 1015.19 1015.19 1015.10 1015.00 1014.92 1014.91 1014.98 1015.11 1015.27 1015.41 1015.52 1015.57 1015.56 1015.53 1015.50 1015.50 1015.55 1015.63 1015.73 1015.84 1015.92 1015.97 1016.00 1016.01 1016.03 1016.09 1016.21 1016.37 1016.58 1016.80 1017.03 1017.23 1017.41 1017.56 1017.72 1017.88
1013.38 1013.60 1013.95 1014.38 1014.82 1015.18 1015.42 1015.51 1015.47 1015.35 1015.22 1015.13 1015.14 1015.24 1015.41 1015.60 1015.78 1015.90 1015.94 1015.92 1015.87 1015.83 1015.84 1015.90 1016.02 1016.17 1016.32 1016.43 1016.50 1016.52 1016.51 1016.50 1016.54 1016.64 1016.81 1017.04 1017.30 1017.56 1017.80 1018.00 1018.15 1018.28 1018.41
1013.36 1013.65 1014.07 1014.57 1015.05 1015.44 1015.69 1015.79 1015.74 1015.62 1015.48 1015.41 1015.43 1015.56 1015.75 1015.96 1016.14 1016.25 1016.28 1016.24 1016.17 1016.13 1016.16 1016.26 1016.42 1016.63 1016.82 1016.96 1017.03 1017.02 1016.98 1016.94 1016.94 1017.02 1017.19 1017.43 1017.73 1018.02 1018.29 1018.51 1018.66 1018.78 1018.88
1013.33 1013.67 1014.15 1014.69 1015.21 1015.63 1015.91 1016.03 1016.00 1015.90 1015.80 1015.75 1015.79 1015.93 1016.13 1016.34 1016.50 1016.59 1016.59 1016.53 1016.46 1016.44 1016.49 1016.64 1016.86 1017.11 1017.33 1017.48 1017.54 1017.50 1017.41 1017.32 1017.28 1017.34 1017.50 1017.76 1018.08 1018.41 1018.70 1018.93 1019.09 1019.19 1019.28
1013.31 1013.68 1014.18 1014.75 1015.30 1015.77 1016.08 1016.24 1016.26 1016.20 1016.13 1016.11 1016.18 1016.33 1016.52 1016.71 1016.85 1016.91 1016.89 1016.83 1016.77 1016.77 1016.87 1017.06 1017.32 1017.61 1017.85 1017.99 1018.02 1017.94 1017.80 1017.66 1017.58 1017.61 1017.78 1018.05 1018.38 1018.73 1019.04 1019.28 1019.44 1019.54 1019.61
1013.30 1013.68 1014.19 1014.78 1015.36 1015.86 1016.22 1016.42 1016.49 1016.49 1016.46 1016.47 1016.56 1016.71 1016.89 1017.06 1017.18 1017.23 1017.20 1017.14 1017.11 1017.14 1017.28 1017.51 1017.81 1018.10 1018.34 1018.46 1018.44 1018.31 1018.12 1017.94 1017.83 1017.86 1018.02 1018.31 1018.67 1019.04 1019.37 1019.61 1019.77 1019.86 1019.91
1013.33 1013.70 1014.21 1014.80 1015.40 1015.93 1016.32 1016.57 1016.69 1016.73 1016.74 1016.78 1016.88 1017.03 1017.21 1017.37 1017.48 1017.52 1017.50 1017.47 1017.47 1017.54 1017.71 1017.97 1018.27 1018.56 1018.76 1018.84 1018.78 1018.61 1018.38 1018.17 1018.06 1018.09 1018.28 1018.59 1018.98 1019.37 1019.70 1019.94 1020.09 1020.16 1020.21
1013.41 1013.76 1014.26 1014.84 1015.44 1015.98 1016.40 1016.68 1016.84 1016.91 1016.95 1017.01 1017.11 1017.27 1017.44 1017.60 1017.72 1017.78 1017.79 1017.79 1017.82 1017.93 1018.12 1018.38 1018.67 1018.92 1019.09 1019.12 1019.01 1018.80 1018.55 1018.34 1018.25 1018.31 1018.54 1018.89 1019.31 1019.72 1020.06 1020.30 1020.42 1020.47 1020.50
1013.56 1013.89 1014.35 1014.91 1015.49 1016.02 1016.44 1016.73 1016.90 1016.99 1017.05 1017.12 1017.23 1017.39 1017.58 1017.75 1017.89 1017.98 1018.03 1018.07 1018.14 1018.27 1018.46 1018.71 1018.96 1019.17 1019.28 1019.26 1019.12 1018.89 1018.65 1018.47 1018.41 1018.53 1018.81 1019.21 1019.66 1020.09 1020.44 1020.66 1020.77 1020.79 1020.79
1013.77 1014.05 1014.48 1014.99 1015.54 1016.03 1016.43 1016.71 1016.88 1016.97 1017.03 1017.11 1017.24 1017.41 1017.62 1017.82 1017.99 1018.12 1018.21 1018.29 1018.39 1018.52 1018.71 1018.92 1019.13 1019.29 1019.35 1019.29 1019.13 1018.90 1018.69 1018.55 1018.55 1018.73 1019.07 1019.52 1020.01 1020.46 1020.81 1021.02 1021.11 1021.10 1021.07
1014.01 1014.25 1014.63 1015.09 1015.58 1016.03 1016.38 1016.63 1016.78 1016.86 1016.92 1017.01 1017.15 1017.34 1017.57 1017.81 1018.02 1018.19 1018.33 1018.44 1018.55 1018.68 1018.84 1019.02 1019.18 1019.28 1019.31 1019.23 1019.06 1018.86 1018.69 1018.60 1018.67 1018.91 1019.30 1019.79 1020.30 1020.77 1021.12 1021.33 1021.41 1021.38 1021.32
1014.24 1014.46 1014.79 1015.19 1015.62 1016.00 1016.30 1016.51 1016.62 1016.69 1016.75 1016.84 1017.00 1017.21 1017.48 1017.75 1018.00 1018.21 1018.37 1018.50 1018.62 1018.74 1018.87 1019.01 1019.13 1019.20 1019.20 1019.12 1018.98 1018.82 1018.69 1018.66 1018.78 1019.06 1019.48 1019.99 1020.52 1020.99 1021.35 1021.56 1021.63 1021.60 1021.53
1014.45 1014.65 1014.94 1015.29 1015.65 1015.97 1016.21 1016.36 1016.45 1016.49 1016.55 1016.65 1016.83 1017.07 1017.36 1017.66 1017.94 1018.17 1018.35 1018.49 1018.60 1018.71 1018.81 1018.93 1019.02 1019.08 1019.09 1019.03 1018.92 1018.81 1018.73 1018.74 1018.89 1019.18 1019.60 1020.10 1020.62 1021.09 1021.45 1021.68 1021.77 1021.76 1021.70
1014.61 1014.81 1015.07 1015.38 1015.68 1015.93 1016.12 1016.23 1016.29 1016.32 1016.38 1016.49 1016.68 1016.93 1017.24 1017.56 1017.85 1018.10 1018.29 1018.42 1018.52 1018.61 1018.71 1018.81 1018.90 1018.98 1019.01 1018.99 1018.93 1018.87 1018.82 1018.86 1019.00 1019.27 1019.66 1020.12 1020.61 1021.06 1021.42 1021.67 1021.80 1021.84 1021.81
1014.73 1014.94 1015.20 1015.47 1015.72 1015.93 1016.07 1016.14 1016.18 1016.20 1016.26 1016.37 1016.56 1016.83 1017.13 1017.45 1017.74 1017.99 1018.17 1018.30 1018.40 1018.48 1018.58 1018.68 1018.80 1018.91 1018.98 1019.02 1019.02 1018.99 1018.98 1019.01 1019.12 1019.33 1019.65 1020.05 1020.48 1020.90 1021.27 1021.55 1021.73 1021.83 1021.87
1014.82 1015.06 1015.32 1015.56 1015.78 1015.95 1016.06 1016.11 1016.13 1016.15 1016.20 1016.31 1016.49 1016.74 1017.04 1017.34 1017.61 1017.84 1018.01 1018.14 1018.23 1018.32 1018.43 1018.57 1018.72 1018.88 1019.02 1019.11 1019.16 1019.17 1019.16 1019.17 1019.23 1019.36 1019.58 1019.89 1020.25 1020.63 1020.99 1021.30 1021.55 1021.73 1021.85
1014.91 1015.18 1015.44 1015.68 1015.87 1016.01 1016.09 1016.12 1016.13 1016.14 1016.19 1016.29 1016.45 1016.67 1016.93 1017.20 1017.45 1017.65 1017.81 1017.93 1018.04 1018.15 1018.28 1018.46 1018.66 1018.87 1019.07 1019.22 1019.32 1019.36 1019.35 1019.32 1019.30 1019.34 1019.46 1019.66 1019.93 1020.26 1020.61 1020.95 1021.26 1021.52 1021.73
1015.02 1015.32 1015.58 1015.79 1015.96 1016.07 1016.14 1016.16 1016.16 1016.17 1016.20 1016.27 1016.40 1016.58 1016.79 1017.02 1017.23 1017.41 1017.56 1017.68 1017.81 1017.95 1018.12 1018.33 1018.58 1018.85 1019.10 1019.30 1019.44 1019.49 1019.47 1019.41 1019.33 1019.28 1019.29 1019.38 1019.56 1019.82 1020.14 1020.50 1020.85 1021.19 1021.48
1015.15 1015.46 1015.71 1015.90 1016.03 1016.12 1016.17 1016.18 1016.18 1016.17 1016.19 1016.23 1016.32 1016.45 1016.60 1016.78 1016.95 1017.11 1017.25 1017.39 1017.53 1017.71 1017.92 1018.17 1018.46 1018.77 1019.05 1019.30 1019.46 1019.53 1019.52 1019.43 1019.30 1019.17 1019.08 1019.07 1019.16 1019.34 1019.61 1019.95 1020.33 1020.71 1021.06
1015.30 1015.59 1015.80 1015.95 1016.05 1016.11 1016.14 1016.15 1016.15 1016.14 1016.13 1016.15 1016.19 1016.26 1016.36 1016.48 1016.61 1016.75 1016.89 1017.04 1017.22 1017.42 1017.66 1017.94 1018.26 1018.59 1018.90 1019.16 1019.35 1019.45 1019.44 1019.35 1019.19 1019.01 1018.86 1018.76 1018.75 1018.85 1019.05 1019.34 1019.70 1020.09 1020.47
1015.44 1015.68 1015.83 1015.92 1015.98 1016.01 1016.03 1016.05 1016.05 1016.04 1016.02 1016.01 1016.00 1016.02 1016.06 1016.13 1016.22 1016.34 1016.49 1016.65 1016.85 1017.07 1017.33 1017.63 1017.95 1018.28 1018.61 1018.89 1019.10 1019.22 1019.25 1019.18 1019.03 1018.83 1018.64 1018.47 1018.38 1018.39 1018.49 1018.70 1019.00 1019.35 1019.73
1015.52 1015.69 1015.77 1015.79 1015.79 1015.80 1015.82 1015.85 1015.87 1015.87 1015.86 1015.82 1015.79 1015.75 1015.74 1015.76 1015.81 1015.91 1016.04 1016.22 1016.42 1016.65 1016.92 1017.21 1017.52 1017.85 1018.17 1018.46 1018.70 1018.86 1018.94 1018.92 1018.81 1018.64 1018.43 1018.23 1018.06 1017.97 1017.97 1018.07 1018.27 1018.55 1018.89
1015.51 1015.59 1015.58 1015.54 1015.50 1015.50 1015.53 1015.58 1015.64 1015.67 1015.67 1015.64 1015.57 1015.49 1015.42 1015.39 1015.40 1015.46 1015.57 1015.73 1015.93 1016.15 1016.41 1016.68 1016.97 1017.28 1017.59 1017.89 1018.16 1018.38 1018.53 1018.59 1018.56 1018.44 1018.25 1018.03 1017.81 1017.63 1017.51 1017.49 1017.57 1017.76 1018.03
1015.40 1015.38 1015.29 1015.19 1015.13 1015.13 1015.19 1015.30 1015.40 1015.49 1015.51 1015.48 1015.39 1015.27 1015.15 1015.05 1015.00 1015.01 1015.08 1015.21 1015.37 1015.57 1015.79 1016.03 1016.29 1016.57 1016.87 1017.19 1017.50 1017.78 1018.02 1018.18 1018.24 1018.20 1018.07 1017.86 1017.61 1017.35 1017.14 1016.99 1016.95 1017.03 1017.21
1015.20 1015.11 1014.95 1014.81 1014.74 1014.77 1014.88 1015.05 1015.22 1015.36 1015.42 1015.40 1015.29 1015.13 1014.94 1014.77 1014.64 1014.57 1014.58 1014.64 1014.76 1014.91 1015.09 1015.28 1015.51 1015.77 1016.06 1016.39 1016.74 1017.09 1017.42 1017.68 1017.86 1017.92 1017.86 1017.68 1017.43 1017.13 1016.84 1016.60 1016.45 1016.42 1016.53
1014.97 1014.81 1014.62 1014.47 1014.42 1014.48 1014.66 1014.90 1015.14 1015.34 1015.44 1015.43 1015.29 1015.08 1014.82 1014.55 1014.33 1014.16 1014.08 1014.06 1014.11 1014.20 1014.32 1014.47 1014.66 1014.89 1015.18 1015.52 1015.91 1016.32 1016.73 1017.10 1017.38 1017.54 1017.56 1017.45 1017.23 1016.93 1016.60 1016.30 1016.08 1015.98 1016.01
Thickness
5791 5788 5779 5779 5778 5777 5776 5775 5773 5772 5771 5770 5768 5768 5766 5766 5765 5764 5763 5762 5762 5761 5760 5759 5758 5757 5756 5755 5754 5752 5751 5750 5748 5747 5746 5744 5742 5741 5740 5739 5739 5737 5733
5794 5787 5778 5778 5777 5776 5774 5773 5771 5770 5769 5768 5767 5766 5764 5764 5763 5762 5761 5761 5760 5759 5758 5757 5756 5755 5754 5753 5751 5750 5749 5748 5746 5745 5744 5742 5740 5739 5738 5738 5738 5735 5732
5794 5786 5779 5777 5775 5774 5772 5771 5770 5768 5767 5766 5765 5764 5763 5762 5761 5760 5759 5759 5758 5757 5756 5755 5754 5753 5751 5750 5749 5748 5747 5746 5745 5745 5745 5744 5739 5737 5736 5734 5733 5731 5730
5793 5787 5781 5775 5774 5772 5770 5769 5768 5766 5765 5764 5763 5762 5761 5760 5759 5758 5757 5757 5756 5755 5754 5753 5752 5751 5749 5748 5747 5746 5745 5744 5744 5745 5747 5744 5740 5734 5733 5732 5731 5729 5728
5793 5787 5778 5774 5772 5770 5769 5768 5766 5765 5764 5762 5761 5760 5759 5758 5757 5756 5755 5755 5754 5753 5752 5751 5750 5748 5747 5746 5745 5743 5743 5742 5743 5746 5744 5742 5738 5733 5731 5730 5729 5727 5726
5792 5787 5778 5773 5771 5769 5767 5766 5765 5763 5762 5761 5760 5758 5757 5756 5755 5754 5753 5753 5752 5751 5750 5749 5748 5746 5745 5744 5743 5742 5741 5742 5744 5745 5742 5740 5736 5731 5730 5728 5727 5726 5725
5793 5787 5778 5772 5769 5767 5766 5764 5763 5762 5761 5759 5758 5757 5755 5754 5753 5752 5751 5751 5750 5749 5748 5747 5746 5744 5743 5742 5741 5740 5740 5741 5745 5743 5740 5738 5733 5729 5728 5727 5726 5724 5723
5793 5787 5777 5770 5768 5766 5764 5763 5762 5760 5759 5758 5756 5755 5754 5753 5751 5750 5749 5749 5748 5747 5746 5745 5744 5743 5741 5740 5739 5738 5739 5741 5742 5742 5739 5735 5730 5728 5727 5725 5724 5723 5722
5792 5787 5779 5774 5768 5765 5763 5761 5760 5759 5757 5756 5755 5753 5752 5751 5750 5749 5748 5747 5746 5745 5744 5743 5742 5741 5740 5739 5738 5737 5738 5740 5744 5741 5738 5734 5728 5727 5726 5724 5723 5722 5721
5790 5786 5781 5777 5772 5768 5764 5760 5759 5757 5756 5754 5753 5752 5751 5749 5748 5747 5747 5746 5744 5743 5743 5742 5741 5740 5739 5738 5737 5736 5737 5739 5743 5740 5737 5731 5727 5726 5724 5723 5722 5720 5719
5785 5784 5782 5777 5772 5770 5767 5761 5759 5756 5755 5753 5752 5750 5750 5752 5751 5749 5747 5744 5743 5742 5741 5741 5739 5739 5738 5737 5736 5736 5738 5742 5741 5740 5735 5729 5726 5725 5724 5722 5721 5719 5718
5781 5781 5781 5777 5773 5771 5768 5762 5762 5760 5756 5756 5754 5753 5752 5751 5751 5750 5744 5743 5742 5741 5740 5739 5739 5739 5740 5740 5737 5737 5741 5740 5740 5738 5732 5728 5726 5724 5723 5721 5720 5719 5718
5782 5780 5779 5775 5772 5771 5768 5765 5763 5761 5757 5756 5754 5752 5751 5751 5750 5749 5747 5744 5742 5742 5743 5740 5741 5743 5742 5741 5741 5742 5741 5741 5740 5738 5732 5727 5725 5724 5723 5721 5720 5718 5717
5783 5780 5778 5774 5770 5769 5768 5765 5763 5761 5758 5757 5753 5752 5751 5751 5750 5750 5747 5746 5745 5744 5743 5743 5742 5741 5741 5741 5740 5740 5740 5741 5739 5737 5731 5727 5725 5724 5723 5721 5720 5718 5717
5782 5780 5777 5774 5770 5766 5765 5764 5763 5761 5760 5757 5754 5752 5751 5751 5750 5749 5747 5745 5746 5745 5744 5742 5742 5741 5740 5740 5740 5740 5740 5739 5738 5737 5733 5728 5726 5725 5723 5722 5720 5719 5718
5784 5781 5778 5773 5769 5765 5763 5762 5762 5761 5757 5757 5755 5752 5750 5751 5749 5748 5746 5745 5745 5744 5744 5743 5742 5741 5741 5741 5740 5740 5739 5739 5737 5736 5735 5730 5727 5726 5724 5723 5721 5720 5719
5787 5783 5778 5774 5770 5765 5763 5762 5761 5760 5758 5757 5755 5751 5750 5750 5748 5747 5747 5745 5745 5744 5742 5741 5741 5741 5741 5742 5741 5741 5740 5738 5738 5737 5736 5735 5732 5728 5726 5724 5723 5721 5720
5789 5783 5778 5776 5770 5766 5763 5761 5761 5760 5758 5756 5754 5752 5749 5749 5747 5746 5747 5747 5744 5744 5743 5742 5742 5741 5741 5742 5742 5742 5742 5740 5739 5738 5738 5736 5736 5735 5730 5727 5725 5723 5722
5790 5784 5778 5775 5771 5767 5764 5761 5760 5758 5756 5756 5754 5752 5750 5748 5747 5747 5747 5746 5744 5744 5744 5744 5744 5742 5740 5741 5742 5742 5743 5743 5741 5741 5740 5739 5737 5736 5735 5731 5728 5726 5724
5792 5786 5779 5775 5772 5768 5765 5761 5759 5757 5756 5755 5754 5752 5750 5748 5747 5747 5746 5745 5745 5745 5743 5743 5741 5740 5740 5740 5743 5744 5744 5745 5744 5744 5742 5742 5740 5739 5738 5736 5733 5730 5728
5792 5786 5781 5776 5773 5769 5766 5762 5759 5757 5757 5756 5754 5752 5750 5748 5748 5746 5748 5745 5744 5745 5743 5744 5742 5740 5740 5741 5740 5739 5743 5746 5746 5745 5744 5744 5744 5742 5740 5738 5736 5736 5733
5793 5788 5783 5778 5775 5771 5768 5765 5762 5760 5759 5758 5756 5753 5751 5749 5748 5748 5746 5747 5746 5744 5743 5742 5740 5741 5741 5741 5738 5735 5735 5740 5743 5748 5746 5745 5745 5744 5742 5740 5738 5736 5736
5797 5792 5789 5783 5778 5774 5771 5767 5763 5759 5757 5757 5756 5755 5753 5751 5749 5748 5747 5746 5746 5745 5744 5742 5741 5739 5739 5741 5741 5737 5732 5733 5741 5747 5747 5747 5746 5745 5744 5743 5740 5739 5737
5801 5797 5791 5786 5780 5776 5772 5768 5764 5759 5757 5758 5757 5757 5755 5752 5751 5750 5747 5746 5746 5746 5745 5744 5744 5742 5739 5739 5740 5740 5739 5739 5734 5738 5745 5748 5747 5744 5744 5744 5744 5742 5739
5805 5800 5794 5788 5782 5778 5773 5769 5765 5762 5761 5760 5759 5757 5754 5754 5752 5751 5749 5748 5747 5747 5746 5745 5744 5741 5742 5740 5740 5740 5738 5737 5737 5734 5734 5741 5745 5747 5746 5745 5745 5744 5742
5807 5801 5796 5789 5783 5779 5774 5771 5767 5764 5761 5758 5755 5755 5754 5754 5753 5752 5751 5749 5748 5748 5747 5745 5744 5742 5742 5741 5741 5740 5738 5736 5736 5735 5733 5735 5738 5744 5746 5746 5745 5743 5742